Preview of NWS' New Version of Forecast
This preview is not operational and should not be used for support decisions.

Regional Weather Roundup (RWR)

Issued by National Weather Service (NWS)

                            
000
ASUS42 KTBW 170317
RWRFL 
FLORIDA REGIONAL WEATHER ROUNDUP
NATIONAL WEATHER SERVICE TAMPA BAY RUSKIN FL
1000 PM EST SAT FEB 16 2019

NOTE: "FAIR" INDICATES FEW OR NO CLOUDS BELOW 12,000 FEET WITH NO
SIGNIFICANT WEATHER AND/OR OBSTRUCTIONS TO VISIBILITY.

FLZ001>010-012>015-112-114-115-170400-
PANHANDLE FLORIDA
  
CITY           SKY/WX    TMP DP  RH WIND       PRES   REMARKS
PENSACOLA      CLOUDY    66  63  90 S6        29.83R                  
PENSACOLA NAS  CLOUDY    65  65 100 SW7       29.82R                  
MILTON NAS     FAIR      62  62 100 S6        29.83  FOG              
CRESTVIEW      FAIR      63  61  93 S5        29.84S                  
DUKE FIELD     CLOUDY    63  63 100 S7        29.83S FOG              
VALPARAISO     LGT RAIN  63  63 100 S3        29.83R FOG              
MARY ESTHER    LGT RAIN  63  62  95 S3        29.82S                  
PANAMA CITY    FOG       62  61  96 SE3       29.84S VSB 1/2          
TYNDALL AFB    CLOUDY    65  63  96 S6        29.85S                  
APALACHICOLA   MOCLDY    65  64  97 S6        29.87R                  

STATION/POSITION SKY/WX   TEMP    WIND        PRES    WAVE   SWELL
                          AIR SEA DIR/SP/G            HT/PER HT/PER
                          (F)     (DEG/KT/KT) (MB)    (FT/S) (FT/S)
30.1N   87.6W              64     170/  6/  6 1010.5R   2/ 6   2/ 6
29.2N   88.2W                     180/  6/  8 1010.2R   2/ 5   2/ 5
PANAMA CITY BEAC           64 62  180/  6/  7 1011.2R
TOWER C                    68     200/ 11/ 11 1011.9R

$$
FLZ011-016>038-118-127-128-134-139-239-170400-
NORTH FLORIDA
  
CITY           SKY/WX    TMP DP  RH WIND       PRES   REMARKS
MARIANNA       FAIR      65  63  93 S7        29.84R                  
TALLAHASSEE    FAIR      66  64  93 S3        29.86R                  
PERRY          CLOUDY    66  65  97 SW5       29.90R                  
LIVE OAK       MOCLDY    64  66 100 CALM      29.89R                  
CROSS CITY     MOCLDY    64  64  97 S3        29.91R                  
LAKE CITY      CLOUDY    64  63  94 SW8       29.90R                  
GAINESVILLE    FAIR      68  63  84 SW7       29.93S                  
WILLISTON        N/A    N/A N/A N/A MISG        N/A                   
PALATKA        MOCLDY    64  63  94 SW3       29.91S                  
MAYPORT NAS    FAIR      68  61  78 SW8       29.89R                  
JACKSONVILLE   MOCLDY    69  60  73 SW8       29.88R                  
JAX NAS        MOCLDY    70  62  76 SW10      29.90R                  
JAX CECIL      NOT AVBL                                               
FERNANDINA BEA FAIR      69  61  75 SW10      29.88R                  
ST AUGUSTINE   FAIR      67  60  78 SW6       29.91R                  
PALM COAST     FAIR      66  60  81 SW3       29.92R                  

STATION/POSITION SKY/WX   TEMP    WIND        PRES    WAVE   SWELL
                          AIR SEA DIR/SP/G            HT/PER HT/PER
                          (F)     (DEG/KT/KT) (MB)    (FT/S) (FT/S)
SHELL POINT      NOT AVBL
KEATON BEACH               65     200/  9/ 10 1012.5R
CEDAR KEY                  65     220/  5/  7 1013.0R
FERNANDINA                 69 60  220/  5/  9 1012.6R
30.7N   81.3W                 59                N/A     1/ 8
MAYPORT                    68 60  220/  7/  9 1012.2R
31.4N   80.9W              60 58  190/  6/  8 1011.4R   2/ 8   2/ 8
ST AUGUSTINE               67 58  230/  5/  7 1012.8R

$$
FLZ040-043>046-052-053-057-058-063-144-170400-
INTERIOR CENTRAL FLORIDA
  
CITY           SKY/WX    TMP DP  RH WIND       PRES   REMARKS
OCALA          FOG       63  63 100 CALM      29.93R VSB 1/4          
LEESBURG       FAIR      63  61  93 CALM      29.93R                  
SANFORD        FAIR      68  61  78 W5        29.92R                  
ORLANDO EXEC   FAIR      71  63  75 SW5       29.93R                  
ORLANDO INTL   FAIR      69  62  78 W3        29.93R                  
KISSIMMEE      FAIR      67  62  84 CALM      29.94R                  
WINTER HAVEN   FAIR      70  64  81 SW3       29.94R                  
LAKELAND       FAIR      64  63  94 CALM      29.93S                  
BARTOW         FAIR      66  63  88 SW5       29.93R                  
SEBRING        FAIR      68  62  81 W5        29.95R                  
OKEECHOBEE     FAIR      64  59  82 CALM      29.94R                  

$$
FLZ041-047-054-059-064-141-147-170400-
EAST CENTRAL FLORIDA
  
CITY           SKY/WX    TMP DP  RH WIND       PRES   REMARKS
DAYTONA BEACH  FAIR      64  61  90 CALM      29.92R                  
DELAND         FAIR      64  59  82 CALM      29.92S                  
NEW SMYRNA BEA CLEAR     66  59  77 CALM      29.93R                  
JFK SPACE CTR  FAIR      64  60  89 CALM      29.92R                  
CAPE CANAVERAL FAIR      68  61  78 W6        29.92R                  
PATRICK AFB    FAIR      69  65  88 W5        29.93R                  
MELBOURNE      FAIR      70  61  73 SW6       29.93R                  
VERO BEACH     FAIR      69  59  70 W6        29.93R                  
FT PIERCE      FAIR      67  59  75 W6        29.93R                  
STUART         FAIR      70  61  73 CALM      29.96R                  

STATION/POSITION SKY/WX   TEMP    WIND        PRES    WAVE   SWELL
                          AIR SEA DIR/SP/G            HT/PER HT/PER
                          (F)     (DEG/KT/KT) (MB)    (FT/S) (FT/S)
28.5N   80.2W              68     250/  6/  6 1013.9R   2/ 8   2/ 8
28.9N   78.5W              75 74  210/ 14/ 16 1013.7R   4/ 8   3/ 8
TRIDENT PIER               70 65  240/  5/  7 1014.4R
28.4N   80.5W                 64                N/A     1/ 8

$$
FLZ050-056-061-142-242-148-248-149-249-151-251-155-255-
160-260-170400-
WEST CENTRAL FLORIDA
  
CITY           SKY/WX    TMP DP  RH WIND       PRES   REMARKS
CRYSTAL RIVER  FAIR      66  64  94 S5        29.92S                  
INVERNESS      FAIR      63  63 100 CALM      29.93R                  
BROOKSVILLE    FAIR      63  61  93 CALM      29.93R                  
CLEARWATER AIR FAIR      66  59  77 S3        29.92S                  
ST PETE CLEARW MOCLDY    67  60  78 S7        29.92R                  
TAMPA INTL     FAIR      68  62  81 S5        29.93R                  
TAMPA EXEC     FAIR      63  61  94 CALM      29.94R                  
PLANT CITY     FAIR      68  64  88 S3        29.95R                  
MACDILL AFB    FAIR      67  63  86 S5        29.92R                  
PETER O KNIGHT CLOUDY    68  66  94 CALM      29.93R                  
ST PETERSBURG  FAIR      69  62  78 SW5       29.91R                  
SARASOTA       FAIR      70  64  81 S8        29.91R                  
VENICE         FAIR      68  66  94 S8        29.94R                  

STATION/POSITION SKY/WX   TEMP    WIND        PRES    WAVE   SWELL
                          AIR SEA DIR/SP/G            HT/PER HT/PER
                          (F)     (DEG/KT/KT) (MB)    (FT/S) (FT/S)
27.3N   84.2W                 71                N/A     3/ 5
CLEARWATER BEACH           69 66  160/  7/ 10 1013.2R
MIDDLE TAMPA BAY           68     190/  6/  7 1013.5R
VENICE                     68 67  160/  8/  8   N/A

$$
FLZ066-069-070-075>078-162-262-165-265-170400-
SOUTHWEST FLORIDA AND KEYS
  
CITY           SKY/WX    TMP DP  RH WIND       PRES   REMARKS
PUNTA GORDA    FAIR      65  61  87 S5        29.95R                  
FT MYERS       FAIR      69  66  90 CALM      29.93R                  
SOUTHWEST INTL FAIR      68  65  90 CALM      29.94R                  
NAPLES         FAIR      70  67  90 CALM      29.94R                  
MARCO ISLAND   FAIR      67  66  97 CALM      29.96R                  
IMMOKALEE      FAIR      66  64  94 CALM      29.93R                  
MARATHON       FAIR      77  68  73 CALM      29.96R                  
KEY WEST NAS   FAIR      75  68  78 E3        29.96R                  
KEY WEST INTL  FAIR      75  69  81 E3        29.96R                  

STATION/POSITION SKY/WX   TEMP    WIND        PRES    WAVE   SWELL
                          AIR SEA DIR/SP/G            HT/PER HT/PER
                          (F)     (DEG/KT/KT) (MB)    (FT/S) (FT/S)
NAPLES                     73 71   CALM  /  2 1014.0R
26.0N   85.6W              78 80  190/ 12/ 16 1012.0
DRY TORTUGAS               76     120/  5/  6 1014.3R
SAND KEY                   76                 1014.5R
SOMBRERO KEY               77                 1013.9R
LONG KEY                   75 74  310/  1/  2 1014.4R
MOLASSES REEF              76 77  160/  7/  8 1015.0R

$$
FLZ067-068-071>074-168-172>174-170400-
SOUTHEAST FLORIDA 
  
CITY           SKY/WX    TMP DP  RH WIND       PRES   REMARKS
W PALM BEACH   FAIR      74  64  71 W6        29.95R                  
BOCA RATON     MOCLDY    75  66  73 W12       29.95R                  
FT LAUDER-EXEC FAIR      74  68  81 SW5       29.95R                  
FT LAUDERDALE  FAIR      74  69  85 SW3       29.95R                  
POMPANO BEACH  FAIR      75  66  73 SW8       29.95R                  
PEMBROKE PINES FAIR      71  65  81 W3        29.97R                  
OPA LOCKA      FAIR      72  65  78 SW6       29.96R                  
MIAMI          FAIR      72  68  87 S6        29.96R                  
WEST KENDALL   FAIR      72  67  84 S3        29.96R                  
HOMESTEAD      FAIR      69  67  93 S5        29.95R                  

STATION/POSITION SKY/WX   TEMP    WIND        PRES    WAVE   SWELL
                          AIR SEA DIR/SP/G            HT/PER HT/PER
                          (F)     (DEG/KT/KT) (MB)    (FT/S) (FT/S)
PORT EVERGLADES            74     230/  3/  5 1014.4
VIRGINIA KEY               74 76  180/  5/  6 1013.7R
LAKE WORTH                 75 76  280/  4/  6 1015.2R
FOWEY ROCKS                75 76  210/ 10/ 11 1015.2R
SETTLEMENT POINT           76     190/ 13/ 17 1014.5R

$$